TimeCST,TemperatureF,Dew PointF,Humidity,Sea Level PressureIn,VisibilityMPH,Wind Direction,Wind SpeedMPH,Gust SpeedMPH,PrecipitationIn,Events,Conditions,WindDirDegrees,DateUTC
12:53 AM,63.0,46.9,56,30.23,10.0,NW,6.9,-,N/A,,Overcast,320,2012-11-15 06:53:00
1:53 AM,63.0,46.0,54,30.22,10.0,NW,6.9,-,N/A,,Overcast,310,2012-11-15 07:53:00
2:53 AM,62.1,46.0,56,30.20,10.0,NNW,4.6,-,N/A,,Overcast,330,2012-11-15 08:53:00
3:53 AM,62.1,48.0,60,30.19,10.0,NW,4.6,-,N/A,,Overcast,320,2012-11-15 09:53:00
4:53 AM,63.0,50.0,63,30.18,10.0,NW,4.6,-,N/A,,Overcast,310,2012-11-15 10:53:00
5:53 AM,63.0,48.0,58,30.19,10.0,NW,5.8,-,N/A,,Overcast,320,2012-11-15 11:53:00
6:53 AM,63.0,48.9,60,30.19,10.0,NW,5.8,-,N/A,,Overcast,320,2012-11-15 12:53:00
7:53 AM,64.0,50.0,60,30.21,10.0,NNW,5.8,-,N/A,,Overcast,340,2012-11-15 13:53:00
8:53 AM,69.1,54.0,58,30.22,10.0,NNE,8.1,-,N/A,,Overcast,20,2012-11-15 14:53:00
9:53 AM,72.0,57.9,61,30.24,10.0,Calm,Calm,-,N/A,,Overcast,0,2012-11-15 15:53:00
10:53 AM,73.0,60.1,64,30.22,10.0,ENE,9.2,-,N/A,,Overcast,70,2012-11-15 16:53:00
11:53 AM,73.9,61.0,64,30.21,10.0,ENE,8.1,-,N/A,,Overcast,70,2012-11-15 17:53:00
12:53 PM,73.0,61.0,66,30.18,10.0,ENE,8.1,-,N/A,,Overcast,70,2012-11-15 18:53:00
1:53 PM,73.0,62.1,68,30.15,10.0,East,10.4,-,N/A,,Overcast,80,2012-11-15 19:53:00
2:53 PM,73.0,62.1,68,30.14,10.0,East,9.2,-,N/A,,Overcast,80,2012-11-15 20:53:00
3:53 PM,72.0,62.1,71,30.13,10.0,East,13.8,-,N/A,,Overcast,90,2012-11-15 21:53:00
4:25 PM,71.6,62.6,73,30.12,10.0,East,10.4,-,N/A,,Overcast,80,2012-11-15 22:25:00
4:44 PM,71.6,62.6,73,30.12,10.0,East,6.9,-,N/A,,Overcast,80,2012-11-15 22:44:00
4:53 PM,72.0,63.0,73,30.12,10.0,East,5.8,-,N/A,,Overcast,80,2012-11-15 22:53:00
5:53 PM,72.0,62.1,71,30.15,10.0,East,5.8,-,N/A,,Overcast,90,2012-11-15 23:53:00
6:09 PM,71.6,62.6,73,30.16,8.0,ENE,4.6,-,0.00,Rain,Light Rain,70,2012-11-16 00:09:00
6:53 PM,68.0,64.9,90,30.17,4.0,NE,6.9,-,0.02,Rain,Rain,40,2012-11-16 00:53:00
7:23 PM,68.0,64.4,88,30.18,6.0,ENE,5.8,-,0.01,Rain,Light Rain,60,2012-11-16 01:23:00
7:53 PM,68.0,64.9,90,30.19,8.0,NE,4.6,-,0.01,,Overcast,50,2012-11-16 01:53:00
8:02 PM,68.0,64.4,88,30.19,9.0,ENE,4.6,-,N/A,,Overcast,60,2012-11-16 02:02:00
8:21 PM,68.0,64.4,88,30.19,9.0,ENE,4.6,-,N/A,,Overcast,60,2012-11-16 02:21:00
8:53 PM,68.0,64.9,90,30.19,8.0,East,5.8,-,N/A,,Overcast,80,2012-11-16 02:53:00
9:31 PM,69.8,64.4,83,30.20,9.0,East,6.9,-,N/A,,Overcast,80,2012-11-16 03:31:00
9:53 PM,69.1,66.0,90,30.20,8.0,East,3.5,-,0.00,Rain,Light Rain,90,2012-11-16 03:53:00
10:53 PM,69.1,66.0,90,30.20,9.0,ESE,4.6,-,N/A,,Overcast,120,2012-11-16 04:53:00
11:53 PM,69.1,66.0,90,30.19,8.0,ENE,10.4,-,N/A,,Overcast,70,2012-11-16 05:53:00